QPF
0.03 0.04 0.07 0.09 0.09 0.10 0.09 0.07 0.08 0.10 0.09 0.07 0.06 0.08 0.12 0.19 0.18 0.11 0.10 0.08 0.07 0.05 0.03 0.01 0.01 0.01 0.02 0.02 0.02 0.02 0.01 0.01 0.01 0.01 0.01 0.02 0.04 0.04 0.05 0.05 0.04 0.03 0.02
0.02 0.03 0.06 0.09 0.09 0.09 0.08 0.05 0.07 0.11 0.11 0.10 0.07 0.06 0.08 0.12 0.15 0.12 0.09 0.07 0.07 0.06 0.03 0.01 0.01 0.01 0.01 0.02 0.01 0.01 0.01 0.01 0.01 0.02 0.01 0.02 0.04 0.04 0.04 0.03 0.03 0.02 0.02
0.01 0.02 0.04 0.07 0.08 0.08 0.07 0.04 0.05 0.10 0.13 0.12 0.09 0.08 0.07 0.09 0.10 0.11 0.09 0.07 0.05 0.06 0.04 0.02 0.01 0.02 0.02 0.02 0.02 0.01 0.01 0.01 0.01 0.01 0.01 0.01 0.02 0.03 0.03 0.02 0.02 0.02 0.02
0.00 0.01 0.03 0.05 0.07 0.07 0.07 0.05 0.05 0.07 0.12 0.15 0.11 0.08 0.07 0.07 0.07 0.08 0.07 0.06 0.05 0.04 0.05 0.04 0.03 0.03 0.03 0.03 0.02 0.01 0.01 0.01 0.01 0.01 0.01 0.01 0.01 0.02 0.02 0.02 0.02 0.02 0.02
0.00 0.01 0.01 0.02 0.04 0.05 0.05 0.05 0.04 0.06 0.09 0.13 0.13 0.12 0.08 0.06 0.05 0.06 0.06 0.04 0.04 0.03 0.03 0.03 0.03 0.03 0.02 0.03 0.03 0.02 0.01 0.01 0.01 0.01 0.01 0.01 0.01 0.01 0.02 0.02 0.01 0.01 0.01
0.00 0.00 0.01 0.01 0.02 0.04 0.03 0.03 0.04 0.04 0.06 0.09 0.10 0.11 0.10 0.07 0.06 0.05 0.04 0.03 0.04 0.03 0.03 0.03 0.02 0.02 0.01 0.02 0.02 0.03 0.03 0.02 0.01 0.01 0.01 0.01 0.01 0.01 0.02 0.02 0.02 0.01 0.01
0.00 0.00 0.00 0.01 0.01 0.02 0.03 0.03 0.02 0.03 0.03 0.04 0.06 0.06 0.08 0.07 0.07 0.06 0.04 0.02 0.03 0.03 0.03 0.03 0.03 0.02 0.01 0.01 0.01 0.02 0.02 0.02 0.02 0.02 0.02 0.02 0.02 0.02 0.02 0.02 0.03 0.02 0.02
0.00 0.00 0.00 0.00 0.01 0.02 0.04 0.04 0.03 0.02 0.02 0.02 0.03 0.04 0.06 0.06 0.06 0.06 0.04 0.03 0.02 0.02 0.02 0.02 0.02 0.02 0.02 0.01 0.01 0.02 0.02 0.02 0.02 0.02 0.01 0.01 0.01 0.01 0.02 0.03 0.03 0.03 0.02
0.00 0.00 0.00 0.00 0.01 0.02 0.03 0.02 0.01 0.01 0.02 0.02 0.02 0.03 0.04 0.05 0.05 0.05 0.04 0.03 0.03 0.02 0.02 0.02 0.02 0.02 0.02 0.02 0.02 0.02 0.02 0.02 0.02 0.02 0.01 0.01 0.01 0.01 0.01 0.01 0.02 0.03 0.02
0.00 0.00 0.00 0.00 0.01 0.01 0.01 0.01 0.01 0.01 0.01 0.02 0.02 0.02 0.03 0.03 0.03 0.03 0.03 0.02 0.02 0.02 0.02 0.02 0.02 0.02 0.02 0.03 0.03 0.03 0.03 0.03 0.03 0.03 0.02 0.01 0.01 0.01 0.01 0.01 0.01 0.01 0.02
0.00 0.00 0.00 0.00 0.01 0.01 0.01 0.01 0.01 0.01 0.01 0.01 0.01 0.01 0.02 0.02 0.02 0.02 0.01 0.02 0.02 0.01 0.01 0.02 0.02 0.02 0.03 0.03 0.03 0.03 0.03 0.04 0.05 0.04 0.03 0.02 0.02 0.01 0.01 0.01 0.01 0.01 0.01
0.00 0.00 0.01 0.00 0.01 0.01 0.00 0.01 0.01 0.01 0.01 0.01 0.01 0.01 0.01 0.01 0.01 0.01 0.01 0.01 0.02 0.01 0.01 0.01 0.01 0.01 0.01 0.02 0.02 0.02 0.02 0.03 0.04 0.04 0.04 0.02 0.01 0.01 0.00 0.00 0.00 0.00 0.01
0.00 0.00 0.00 0.00 0.01 0.01 0.00 0.01 0.01 0.01 0.01 0.01 0.01 0.01 0.01 0.01 0.00 0.01 0.01 0.01 0.01 0.01 0.01 0.01 0.01 0.01 0.01 0.01 0.01 0.01 0.01 0.01 0.02 0.02 0.03 0.02 0.01 0.00 0.00 0.00 0.00 0.00 0.00
0.00 0.00 0.00 0.00 0.01 0.01 0.00 0.00 0.01 0.01 0.01 0.01 0.01 0.01 0.00 0.00 0.00 0.00 0.01 0.01 0.00 0.00 0.00 0.00 0.01 0.01 0.01 0.01 0.01 0.01 0.01 0.01 0.01 0.01 0.02 0.02 0.01 0.00 0.00 0.00 0.00 0.00 0.00
0.00 0.00 0.00 0.01 0.01 0.00 0.00 0.00 0.01 0.01 0.01 0.01 0.01 0.01 0.00 0.00 0.00 0.00 0.00 0.00 0.00 0.00 0.00 0.00 0.00 0.00 0.00 0.00 0.01 0.00 0.00 0.01 0.01 0.01 0.01 0.01 0.01 0.01 0.00 0.00 0.01 0.01 0.01
0.00 0.00 0.00 0.00 0.00 0.00 0.00 0.00 0.01 0.01 0.00 0.00 0.00 0.00 0.00 0.00 0.00 0.00 0.00 0.00 0.00 0.00 0.00 0.00 0.00 0.00 0.00 0.00 0.00 0.00 0.00 0.00 0.00 0.00 0.01 0.01 0.01 0.01 0.01 0.01 0.01 0.01 0.01
0.00 0.00 0.00 0.00 0.00 0.01 0.01 0.01 0.01 0.01 0.00 0.00 0.00 0.00 0.01 0.01 0.00 0.00 0.00 0.00 0.00 0.00 0.00 0.00 0.00 0.00 0.00 0.00 0.00 0.00 0.00 0.00 0.00 0.00 0.01 0.01 0.01 0.01 0.01 0.01 0.01 0.01 0.01
0.00 0.00 0.00 0.00 0.00 0.01 0.01 0.01 0.01 0.01 0.01 0.01 0.00 0.00 0.01 0.00 0.00 0.00 0.00 0.00 0.00 0.00 0.00 0.00 0.00 0.00 0.00 0.00 0.00 0.00 0.00 0.00 0.00 0.00 0.00 0.00 0.01 0.01 0.01 0.01 0.01 0.01 0.01
0.00 0.00 0.00 0.00 0.00 0.00 0.01 0.01 0.01 0.01 0.01 0.01 0.01 0.01 0.01 0.00 0.00 0.00 0.00 0.00 0.00 0.00 0.00 0.00 0.00 0.00 0.00 0.00 0.00 0.00 0.00 0.00 0.00 0.00 0.00 0.00 0.00 0.01 0.01 0.01 0.02 0.01 0.01
0.00 0.00 0.00 0.01 0.01 0.01 0.01 0.01 0.01 0.01 0.01 0.00 0.00 0.00 0.00 0.00 0.00 0.00 0.00 0.00 0.00 0.00 0.00 0.00 0.00 0.00 0.00 0.00 0.00 0.00 0.00 0.00 0.00 0.00 0.00 0.00 0.00 0.01 0.01 0.01 0.02 0.02 0.02
0.01 0.01 0.01 0.01 0.01 0.01 0.01 0.01 0.01 0.01 0.01 0.00 0.00 0.00 0.00 0.00 0.00 0.00 0.00 0.00 0.00 0.00 0.00 0.00 0.00 0.00 0.00 0.00 0.00 0.00 0.00 0.00 0.00 0.00 0.00 0.00 0.00 0.01 0.01 0.01 0.01 0.02 0.02
0.02 0.02 0.03 0.03 0.02 0.02 0.02 0.02 0.01 0.01 0.01 0.00 0.00 0.00 0.00 0.00 0.00 0.00 0.00 0.00 0.00 0.01 0.00 0.00 0.00 0.00 0.00 0.00 0.00 0.00 0.00 0.00 0.00 0.00 0.00 0.00 0.01 0.01 0.01 0.01 0.02 0.02 0.03
0.04 0.04 0.04 0.04 0.03 0.03 0.02 0.02 0.01 0.01 0.00 0.00 0.00 0.00 0.00 0.00 0.00 0.00 0.01 0.01 0.01 0.01 0.01 0.01 0.00 0.00 0.00 0.00 0.00 0.00 0.00 0.01 0.01 0.01 0.01 0.01 0.01 0.01 0.01 0.01 0.01 0.02 0.02
0.04 0.04 0.03 0.03 0.03 0.02 0.01 0.01 0.01 0.01 0.01 0.01 0.01 0.01 0.01 0.01 0.01 0.01 0.01 0.01 0.01 0.01 0.01 0.01 0.01 0.00 0.00 0.00 0.00 0.00 0.00 0.01 0.01 0.01 0.01 0.01 0.01 0.01 0.01 0.01 0.01 0.01 0.01
0.03 0.03 0.03 0.03 0.03 0.02 0.02 0.02 0.01 0.01 0.02 0.02 0.02 0.01 0.01 0.01 0.01 0.01 0.01 0.01 0.01 0.01 0.01 0.01 0.01 0.01 0.01 0.00 0.01 0.01 0.01 0.01 0.01 0.02 0.02 0.02 0.01 0.01 0.01 0.01 0.01 0.01 0.01
0.03 0.02 0.02 0.02 0.02 0.02 0.02 0.02 0.01 0.01 0.01 0.02 0.02 0.01 0.01 0.01 0.01 0.01 0.00 0.00 0.00 0.01 0.01 0.01 0.01 0.02 0.01 0.01 0.01 0.01 0.02 0.02 0.02 0.02 0.02 0.02 0.01 0.01 0.01 0.01 0.01 0.01 0.01
MSLP
1006.09 1006.67 1007.14 1007.46 1007.65 1007.74 1007.80 1007.87 1007.98 1008.14 1008.33 1008.51 1008.64 1008.70 1008.67 1008.58 1008.47 1008.41 1008.46 1008.69 1009.11 1009.73 1010.53 1011.44 1012.41 1013.38 1014.30 1015.15 1015.92 1016.62 1017.26 1017.88 1018.47 1019.03 1019.57 1020.06 1020.48 1020.83 1021.11 1021.33 1021.51 1021.67 1021.82
1005.75 1006.42 1006.95 1007.31 1007.52 1007.61 1007.65 1007.68 1007.76 1007.90 1008.08 1008.27 1008.43 1008.53 1008.56 1008.53 1008.50 1008.51 1008.63 1008.91 1009.38 1010.02 1010.81 1011.70 1012.63 1013.54 1014.40 1015.19 1015.91 1016.57 1017.19 1017.81 1018.41 1019.00 1019.57 1020.09 1020.54 1020.92 1021.22 1021.46 1021.66 1021.86 1022.05
1005.38 1006.12 1006.72 1007.14 1007.38 1007.48 1007.51 1007.53 1007.59 1007.71 1007.88 1008.08 1008.27 1008.42 1008.51 1008.57 1008.62 1008.72 1008.92 1009.27 1009.77 1010.42 1011.19 1012.04 1012.90 1013.73 1014.50 1015.20 1015.85 1016.44 1017.03 1017.62 1018.23 1018.83 1019.42 1019.97 1020.46 1020.87 1021.21 1021.49 1021.73 1021.97 1022.21
1005.02 1005.81 1006.47 1006.95 1007.23 1007.37 1007.41 1007.43 1007.48 1007.59 1007.76 1007.97 1008.19 1008.39 1008.55 1008.69 1008.84 1009.03 1009.31 1009.71 1010.25 1010.90 1011.65 1012.44 1013.22 1013.96 1014.63 1015.23 1015.78 1016.31 1016.84 1017.40 1017.98 1018.59 1019.19 1019.76 1020.28 1020.72 1021.09 1021.41 1021.70 1021.97 1022.26
1004.69 1005.52 1006.24 1006.77 1007.11 1007.28 1007.36 1007.39 1007.45 1007.56 1007.73 1007.96 1008.21 1008.45 1008.68 1008.90 1009.13 1009.41 1009.76 1010.21 1010.77 1011.43 1012.14 1012.87 1013.58 1014.22 1014.80 1015.30 1015.77 1016.22 1016.69 1017.20 1017.76 1018.34 1018.93 1019.51 1020.03 1020.49 1020.89 1021.23 1021.55 1021.86 1022.18
1004.42 1005.28 1006.04 1006.62 1007.01 1007.24 1007.36 1007.43 1007.51 1007.63 1007.82 1008.06 1008.34 1008.62 1008.90 1009.19 1009.49 1009.83 1010.23 1010.72 1011.30 1011.95 1012.63 1013.31 1013.95 1014.52 1015.02 1015.45 1015.85 1016.23 1016.65 1017.10 1017.61 1018.16 1018.72 1019.27 1019.77 1020.23 1020.62 1020.98 1021.31 1021.64 1021.98
1004.23 1005.10 1005.88 1006.51 1006.95 1007.24 1007.41 1007.52 1007.64 1007.79 1008.00 1008.27 1008.56 1008.88 1009.20 1009.53 1009.87 1010.26 1010.70 1011.21 1011.79 1012.42 1013.07 1013.71 1014.31 1014.83 1015.28 1015.67 1016.02 1016.36 1016.72 1017.13 1017.59 1018.08 1018.59 1019.09 1019.55 1019.97 1020.35 1020.69 1021.01 1021.34 1021.68
1004.13 1004.98 1005.76 1006.41 1006.90 1007.24 1007.47 1007.64 1007.81 1008.01 1008.25 1008.54 1008.86 1009.20 1009.55 1009.90 1010.27 1010.67 1011.12 1011.63 1012.20 1012.81 1013.44 1014.06 1014.62 1015.12 1015.56 1015.92 1016.26 1016.58 1016.91 1017.27 1017.68 1018.11 1018.55 1018.99 1019.40 1019.76 1020.09 1020.40 1020.70 1021.01 1021.34
1004.10 1004.91 1005.67 1006.32 1006.84 1007.23 1007.51 1007.75 1007.98 1008.23 1008.52 1008.85 1009.20 1009.56 1009.92 1010.28 1010.65 1011.05 1011.48 1011.98 1012.52 1013.11 1013.71 1014.31 1014.87 1015.37 1015.81 1016.19 1016.52 1016.84 1017.16 1017.50 1017.85 1018.23 1018.61 1018.97 1019.31 1019.62 1019.90 1020.16 1020.42 1020.71 1021.02
1004.16 1004.89 1005.60 1006.23 1006.75 1007.17 1007.51 1007.81 1008.10 1008.42 1008.76 1009.13 1009.52 1009.90 1010.28 1010.64 1011.00 1011.38 1011.79 1012.25 1012.76 1013.32 1013.90 1014.48 1015.04 1015.55 1016.01 1016.41 1016.77 1017.10 1017.42 1017.74 1018.06 1018.39 1018.71 1019.01 1019.29 1019.54 1019.77 1019.99 1020.22 1020.48 1020.76
1004.31 1004.94 1005.55 1006.13 1006.62 1007.05 1007.42 1007.78 1008.14 1008.52 1008.93 1009.36 1009.79 1010.21 1010.59 1010.96 1011.31 1011.66 1012.05 1012.47 1012.94 1013.46 1014.02 1014.59 1015.14 1015.67 1016.15 1016.58 1016.96 1017.31 1017.63 1017.94 1018.24 1018.54 1018.81 1019.07 1019.30 1019.52 1019.72 1019.91 1020.12 1020.35 1020.61
1004.59 1005.06 1005.56 1006.03 1006.47 1006.88 1007.26 1007.66 1008.08 1008.53 1009.01 1009.50 1009.98 1010.43 1010.85 1011.22 1011.57 1011.91 1012.27 1012.66 1013.10 1013.58 1014.11 1014.66 1015.21 1015.73 1016.22 1016.67 1017.07 1017.43 1017.76 1018.07 1018.36 1018.63 1018.89 1019.12 1019.34 1019.53 1019.71 1019.90 1020.10 1020.31 1020.56
1005.00 1005.30 1005.64 1005.98 1006.33 1006.68 1007.05 1007.46 1007.93 1008.43 1008.98 1009.53 1010.07 1010.57 1011.03 1011.43 1011.79 1012.13 1012.47 1012.84 1013.25 1013.71 1014.21 1014.73 1015.26 1015.78 1016.27 1016.71 1017.12 1017.48 1017.81 1018.12 1018.40 1018.66 1018.91 1019.14 1019.36 1019.55 1019.74 1019.93 1020.13 1020.34 1020.58
1005.57 1005.67 1005.82 1006.00 1006.22 1006.49 1006.82 1007.22 1007.70 1008.25 1008.84 1009.45 1010.05 1010.60 1011.10 1011.55 1011.94 1012.30 1012.65 1013.03 1013.43 1013.87 1014.34 1014.84 1015.35 1015.84 1016.31 1016.74 1017.13 1017.48 1017.80 1018.09 1018.37 1018.63 1018.89 1019.13 1019.35 1019.57 1019.78 1019.98 1020.18 1020.39 1020.61
1006.27 1006.16 1006.10 1006.10 1006.17 1006.33 1006.58 1006.95 1007.42 1007.99 1008.61 1009.27 1009.92 1010.53 1011.08 1011.58 1012.02 1012.42 1012.81 1013.20 1013.62 1014.06 1014.52 1015.00 1015.48 1015.95 1016.38 1016.78 1017.14 1017.46 1017.76 1018.04 1018.31 1018.57 1018.83 1019.09 1019.33 1019.57 1019.80 1020.01 1020.22 1020.42 1020.62
1007.07 1006.74 1006.47 1006.27 1006.18 1006.21 1006.37 1006.68 1007.12 1007.68 1008.33 1009.01 1009.70 1010.35 1010.97 1011.52 1012.02 1012.48 1012.92 1013.36 1013.80 1014.26 1014.74 1015.21 1015.67 1016.10 1016.50 1016.86 1017.18 1017.47 1017.74 1018.00 1018.26 1018.52 1018.78 1019.05 1019.31 1019.56 1019.80 1020.02 1020.22 1020.41 1020.58
1007.88 1007.34 1006.86 1006.48 1006.22 1006.12 1006.18 1006.42 1006.83 1007.36 1008.00 1008.70 1009.41 1010.11 1010.77 1011.38 1011.94 1012.47 1012.98 1013.48 1013.97 1014.47 1014.97 1015.45 1015.90 1016.31 1016.68 1017.01 1017.29 1017.54 1017.78 1018.02 1018.25 1018.51 1018.77 1019.04 1019.30 1019.56 1019.79 1020.00 1020.18 1020.34 1020.47
1008.59 1007.86 1007.20 1006.66 1006.26 1006.04 1006.02 1006.19 1006.55 1007.07 1007.69 1008.39 1009.12 1009.84 1010.54 1011.20 1011.83 1012.42 1013.00 1013.57 1014.12 1014.67 1015.20 1015.71 1016.16 1016.57 1016.92 1017.22 1017.47 1017.70 1017.91 1018.11 1018.34 1018.57 1018.83 1019.08 1019.34 1019.59 1019.80 1019.98 1020.13 1020.24 1020.32
1009.08 1008.20 1007.41 1006.75 1006.25 1005.96 1005.88 1006.01 1006.34 1006.84 1007.45 1008.14 1008.88 1009.62 1010.34 1011.04 1011.72 1012.37 1013.01 1013.64 1014.26 1014.86 1015.44 1015.97 1016.44 1016.85 1017.20 1017.48 1017.72 1017.92 1018.11 1018.30 1018.51 1018.73 1018.96 1019.20 1019.44 1019.66 1019.84 1019.98 1020.08 1020.14 1020.16
1009.29 1008.32 1007.45 1006.73 1006.19 1005.86 1005.77 1005.89 1006.22 1006.71 1007.33 1008.02 1008.76 1009.51 1010.25 1010.97 1011.68 1012.38 1013.07 1013.75 1014.42 1015.06 1015.67 1016.23 1016.73 1017.15 1017.50 1017.79 1018.02 1018.21 1018.39 1018.57 1018.75 1018.95 1019.17 1019.39 1019.59 1019.77 1019.91 1020.01 1020.06 1020.06 1020.03
1009.22 1008.22 1007.33 1006.60 1006.08 1005.79 1005.72 1005.88 1006.24 1006.75 1007.38 1008.08 1008.83 1009.58 1010.33 1011.06 1011.79 1012.51 1013.22 1013.93 1014.63 1015.30 1015.94 1016.51 1017.03 1017.46 1017.82 1018.10 1018.34 1018.53 1018.70 1018.87 1019.04 1019.22 1019.42 1019.60 1019.77 1019.91 1020.01 1020.06 1020.06 1020.02 1019.94
1008.91 1007.94 1007.10 1006.44 1005.99 1005.77 1005.78 1006.01 1006.43 1006.99 1007.65 1008.37 1009.12 1009.87 1010.62 1011.35 1012.08 1012.80 1013.51 1014.22 1014.92 1015.60 1016.24 1016.82 1017.33 1017.76 1018.12 1018.41 1018.64 1018.84 1019.00 1019.16 1019.33 1019.49 1019.66 1019.82 1019.95 1020.06 1020.11 1020.12 1020.08 1019.99 1019.87
1008.50 1007.60 1006.86 1006.32 1005.99 1005.89 1006.01 1006.33 1006.83 1007.44 1008.14 1008.88 1009.64 1010.39 1011.13 1011.85 1012.56 1013.26 1013.95 1014.64 1015.31 1015.97 1016.58 1017.14 1017.63 1018.06 1018.40 1018.69 1018.91 1019.10 1019.26 1019.41 1019.56 1019.70 1019.84 1019.97 1020.08 1020.14 1020.16 1020.14 1020.06 1019.95 1019.80
1008.13 1007.36 1006.76 1006.36 1006.17 1006.21 1006.45 1006.87 1007.44 1008.11 1008.85 1009.61 1010.37 1011.11 1011.83 1012.53 1013.20 1013.86 1014.51 1015.15 1015.78 1016.39 1016.96 1017.47 1017.93 1018.32 1018.64 1018.91 1019.12 1019.29 1019.44 1019.57 1019.70 1019.82 1019.94 1020.03 1020.10 1020.14 1020.13 1020.07 1019.97 1019.83 1019.66
1007.99 1007.37 1006.92 1006.66 1006.62 1006.78 1007.12 1007.62 1008.25 1008.96 1009.72 1010.48 1011.24 1011.96 1012.65 1013.31 1013.94 1014.55 1015.15 1015.73 1016.30 1016.84 1017.34 1017.80 1018.20 1018.54 1018.83 1019.05 1019.24 1019.39 1019.51 1019.62 1019.72 1019.82 1019.90 1019.96 1020.00 1020.01 1019.97 1019.88 1019.76 1019.60 1019.40
1008.20 1007.73 1007.42 1007.30 1007.37 1007.62 1008.04 1008.59 1009.24 1009.95 1010.70 1011.44 1012.16 1012.85 1013.51 1014.12 1014.70 1015.26 1015.80 1016.31 1016.81 1017.27 1017.71 1018.09 1018.43 1018.71 1018.95 1019.13 1019.27 1019.39 1019.48 1019.56 1019.63 1019.69 1019.74 1019.76 1019.77 1019.73 1019.66 1019.55 1019.40 1019.21 1018.99
Thickness
5625 5625 5624 5624 5625 5624 5623 5622 5621 5621 5621 5621 5622 5621 5622 5624 5625 5626 5628 5629 5629 5629 5630 5630 5631 5631 5630 5630 5630 5629 5626 5624 5624 5622 5620 5621 5623 5622 5622 5623 5623 5623 5622
5621 5621 5620 5620 5620 5619 5618 5618 5618 5617 5617 5618 5618 5617 5617 5617 5619 5620 5621 5622 5622 5622 5623 5623 5623 5623 5623 5623 5623 5621 5618 5616 5616 5614 5612 5610 5611 5613 5614 5614 5614 5614 5613
5618 5618 5617 5617 5616 5616 5615 5616 5614 5613 5613 5613 5612 5611 5610 5610 5611 5611 5612 5614 5615 5615 5615 5616 5616 5615 5616 5615 5615 5614 5612 5609 5608 5608 5606 5604 5602 5602 5603 5605 5605 5604 5604
5616 5615 5614 5613 5613 5612 5612 5612 5611 5609 5609 5609 5608 5607 5606 5605 5605 5605 5605 5607 5607 5608 5608 5608 5608 5608 5608 5608 5608 5607 5605 5603 5600 5600 5600 5599 5598 5594 5592 5593 5594 5595 5594
5615 5613 5611 5610 5609 5609 5607 5607 5606 5604 5604 5604 5604 5602 5600 5600 5600 5599 5598 5599 5600 5601 5600 5600 5600 5600 5600 5600 5600 5599 5597 5595 5594 5592 5591 5591 5590 5589 5585 5583 5583 5584 5584
5612 5610 5608 5606 5604 5603 5602 5602 5601 5600 5600 5599 5598 5597 5595 5594 5593 5592 5592 5592 5592 5593 5592 5592 5592 5592 5592 5591 5591 5590 5589 5587 5586 5585 5584 5582 5580 5579 5577 5575 5574 5573 5574
5607 5605 5604 5601 5600 5598 5597 5596 5596 5595 5595 5594 5594 5592 5590 5588 5587 5586 5586 5586 5585 5584 5584 5584 5584 5583 5583 5582 5581 5581 5579 5578 5576 5575 5574 5573 5572 5571 5569 5566 5565 5563 5563
5602 5601 5600 5598 5596 5594 5593 5592 5592 5590 5589 5588 5588 5586 5584 5582 5580 5579 5579 5579 5578 5577 5577 5576 5575 5574 5574 5573 5572 5571 5570 5568 5566 5565 5564 5564 5562 5561 5559 5557 5554 5552 5552
5597 5595 5595 5593 5591 5590 5589 5588 5587 5585 5583 5581 5581 5578 5577 5575 5573 5572 5572 5571 5570 5569 5568 5567 5566 5565 5565 5564 5563 5561 5560 5558 5556 5554 5554 5553 5552 5550 5549 5547 5545 5542 5541
5589 5588 5587 5586 5585 5584 5584 5583 5581 5579 5577 5575 5574 5572 5570 5568 5566 5565 5564 5563 5561 5560 5559 5557 5556 5556 5555 5554 5553 5551 5549 5547 5546 5544 5543 5542 5541 5540 5538 5536 5534 5533 5532
5581 5580 5579 5579 5578 5577 5576 5575 5574 5572 5570 5569 5567 5565 5563 5561 5560 5558 5557 5555 5553 5552 5550 5549 5547 5546 5545 5544 5542 5540 5538 5537 5535 5533 5532 5531 5530 5528 5527 5525 5523 5521 5520
5571 5570 5570 5569 5568 5568 5567 5566 5566 5564 5563 5562 5560 5557 5555 5554 5552 5550 5549 5547 5545 5543 5541 5540 5538 5536 5535 5533 5531 5529 5528 5526 5524 5522 5521 5521 5519 5517 5515 5513 5511 5509 5507
5561 5559 5559 5559 5559 5559 5558 5557 5557 5556 5555 5553 5551 5549 5547 5545 5543 5541 5540 5538 5536 5533 5532 5530 5528 5526 5525 5522 5521 5519 5517 5515 5513 5512 5510 5509 5507 5505 5503 5501 5499 5497 5495
5550 5549 5547 5547 5548 5549 5549 5549 5548 5547 5546 5544 5542 5539 5538 5536 5534 5532 5529 5528 5526 5524 5522 5520 5518 5515 5513 5512 5509 5507 5505 5503 5502 5501 5499 5497 5495 5494 5491 5489 5486 5484 5481
5540 5539 5538 5537 5538 5538 5539 5538 5537 5537 5536 5534 5532 5529 5528 5526 5523 5521 5519 5517 5515 5513 5511 5509 5506 5504 5502 5500 5497 5495 5493 5491 5490 5488 5486 5485 5483 5482 5479 5477 5474 5471 5468
5530 5529 5529 5528 5528 5528 5528 5527 5526 5526 5525 5523 5521 5519 5516 5514 5512 5510 5508 5506 5504 5502 5499 5497 5495 5492 5491 5488 5486 5483 5480 5479 5477 5475 5474 5472 5470 5468 5467 5466 5463 5460 5456
5518 5518 5517 5517 5517 5517 5517 5516 5515 5514 5513 5511 5509 5507 5505 5502 5500 5499 5496 5494 5492 5490 5487 5485 5482 5480 5478 5476 5474 5471 5469 5467 5465 5463 5461 5459 5458 5455 5453 5452 5451 5449 5446
5504 5505 5504 5504 5504 5505 5504 5504 5503 5502 5501 5499 5497 5495 5493 5490 5488 5486 5484 5482 5480 5478 5475 5472 5470 5467 5466 5464 5462 5459 5457 5455 5453 5451 5448 5447 5445 5443 5440 5438 5437 5435 5434
5489 5490 5491 5491 5491 5491 5492 5491 5490 5489 5488 5487 5485 5483 5481 5479 5476 5474 5472 5470 5467 5465 5462 5460 5457 5455 5453 5452 5450 5447 5444 5442 5441 5439 5437 5435 5433 5432 5428 5425 5423 5422 5421
5475 5476 5477 5478 5478 5478 5479 5478 5476 5476 5475 5474 5473 5471 5469 5467 5464 5462 5459 5457 5455 5452 5450 5448 5446 5443 5441 5440 5437 5435 5432 5430 5429 5427 5426 5424 5422 5419 5416 5412 5410 5408 5408
5459 5461 5462 5463 5463 5464 5465 5464 5462 5461 5461 5461 5459 5457 5456 5453 5451 5449 5447 5444 5442 5440 5437 5435 5434 5431 5429 5428 5425 5422 5419 5417 5415 5414 5413 5411 5410 5407 5404 5401 5398 5397 5395
5443 5444 5446 5447 5448 5449 5449 5449 5447 5448 5447 5447 5445 5444 5442 5441 5439 5436 5434 5431 5429 5426 5424 5422 5421 5419 5418 5416 5413 5411 5409 5406 5403 5402 5401 5399 5397 5395 5393 5390 5388 5386 5384
5428 5429 5429 5431 5432 5433 5434 5433 5433 5433 5433 5433 5431 5430 5429 5428 5426 5424 5421 5419 5416 5413 5411 5409 5408 5407 5406 5404 5401 5399 5397 5395 5392 5390 5388 5387 5385 5382 5380 5378 5376 5374 5371
5413 5414 5415 5416 5417 5418 5419 5419 5419 5419 5419 5419 5417 5417 5416 5414 5413 5411 5409 5406 5403 5401 5399 5397 5396 5395 5393 5391 5389 5386 5384 5382 5379 5377 5376 5374 5372 5370 5368 5367 5365 5362 5360
5399 5400 5400 5401 5402 5403 5404 5405 5405 5406 5405 5404 5404 5403 5403 5401 5400 5398 5396 5395 5393 5390 5388 5386 5384 5382 5381 5380 5378 5374 5372 5369 5367 5365 5363 5361 5359 5357 5356 5355 5354 5352 5351
5385 5385 5386 5387 5387 5388 5389 5391 5391 5391 5391 5391 5390 5389 5388 5387 5386 5385 5383 5382 5380 5379 5377 5375 5372 5371 5370 5368 5366 5364 5361 5359 5357 5354 5352 5351 5349 5347 5346 5345 5344 5343 5341